Back to catalog

STARLINK-4607

AliveCommunicationsVLEO
NORAD 53740·PAYLOAD·🇺🇸 United States

Launched Sep 5, 2022 from Cape Canaveral Space Force Station

Loading…

Next Passes (next 24 hours)

TLE

FreshSource: CelesTrak SupGP

Epoch: Sep 15, 2026, 02:04 UTC

1 53740C 22107AS  26258.08659722  .00417710  00000+0  36465-2 0  2586
2 53740  53.1580 113.9897 0001380  83.2643 105.1130 15.68093104    18

Track STARLINK-4607 in real time with AllMySat

Download on the App Store